• In Hungary
  • List of Countries
  • For 7 days
  • Water Temperature
  • Satellite Maps
  • Weather Map
  • News
  • Weather Widgets
  • user-avatar
    Login

    Hourly Weather Matu

    Today, 21 September, Friday

    Time Temperature Precipitation Wind Pressure Humidity
    00:00 +26°C° 1.8 mm 3 mps 756 mmHg 95%
    01:00 +25°C° 1.8 mm 3 mps 756 mmHg 97%
    02:00 +25°C° 1.6 mm 3 mps 756 mmHg 97%
    03:00 +25°C° 1.6 mm 3 mps 756 mmHg 97%
    04:00 +25°C° 1.6 mm 3 mps 755 mmHg 98%
    05:00 +25°C° 0.1 mm 3 mps 756 mmHg 96%
    06:00 +26°C° 0.1 mm 4 mps 756 mmHg 94%
    07:00 +26°C° 0.1 mm 4 mps 756 mmHg 92%
    08:00 +27°C° 0 mm 4 mps 756 mmHg 86%
    09:00 +29°C° 0 mm 4 mps 756 mmHg 79%
    10:00 +30°C° 0 mm 3 mps 756 mmHg 73%
    11:00 +31°C° 0.1 mm 3 mps 756 mmHg 69%
    12:00 +33°C° 0.1 mm 3 mps 755 mmHg 65%
    13:00 +35°C° 0.1 mm 3 mps 755 mmHg 61%
    14:00 +34°C° 0.2 mm 3 mps 755 mmHg 63%
    15:00 +34°C° 0.2 mm 3 mps 755 mmHg 65%
    16:00 +33°C° 0.2 mm 3 mps 754 mmHg 66%
    17:00 +31°C° 0.1 mm 3 mps 755 mmHg 73%
    18:00 +29°C° 0.1 mm 3 mps 755 mmHg 79%
    19:00 +27°C° 0.1 mm 3 mps 756 mmHg 86%
    20:00 +27°C° 0 mm 3 mps 756 mmHg 86%
    21:00 +27°C° 0 mm 3 mps 756 mmHg 87%
    22:00 +27°C° 0 mm 3 mps 757 mmHg 87%
    23:00 +26°C° 0.4 mm 3 mps 756 mmHg 90%

    Tomorrow, 22 September, Saturday

    Time Temperature Precipitation Wind Pressure Humidity
    00:00 +26°C° 0.4 mm 3 mps 756 mmHg 92%
    01:00 +26°C° 0.4 mm 3 mps 756 mmHg 95%
    02:00 +26°C° 2.4 mm 3 mps 756 mmHg 96%
    03:00 +26°C° 2.4 mm 2 mps 756 mmHg 96%
    04:00 +26°C° 2.4 mm 2 mps 756 mmHg 97%
    05:00 +26°C° 1.4 mm 2 mps 757 mmHg 96%
    06:00 +26°C° 1.4 mm 1 mps 757 mmHg 95%
    07:00 +27°C° 1.4 mm 1 mps 758 mmHg 94%
    08:00 +28°C° 0.5 mm 1 mps 758 mmHg 87%
    09:00 +30°C° 0.5 mm 1 mps 758 mmHg 80%
    10:00 +31°C° 0.5 mm 1 mps 758 mmHg 73%
    11:00 +33°C° 0 mm 1 mps 757 mmHg 67%
    12:00 +35°C° 0 mm 2 mps 757 mmHg 61%
    13:00 +36°C° 0 mm 2 mps 756 mmHg 55%
    14:00 +35°C° 0.2 mm 2 mps 756 mmHg 60%
    15:00 +34°C° 0.2 mm 2 mps 755 mmHg 66%
    16:00 +33°C° 0.2 mm 3 mps 755 mmHg 71%
    17:00 +30°C° 0 mm 2 mps 756 mmHg 77%
    18:00 +29°C° 0 mm 2 mps 756 mmHg 83%
    19:00 +27°C° 0 mm 2 mps 757 mmHg 89%
    20:00 +27°C° 0 mm 2 mps 757 mmHg 89%
    21:00 +27°C° 0 mm 2 mps 758 mmHg 90%
    22:00 +27°C° 0 mm 2 mps 758 mmHg 90%
    23:00 +26°C° 0.2 mm 2 mps 757 mmHg 92%

    Day after tomorrow, 23 September, Sunday

    Time Temperature Precipitation Wind Pressure Humidity
    00:00 +26°C° 0.2 mm 1 mps 757 mmHg 94%
    01:00 +26°C° 0.2 mm 1 mps 757 mmHg 95%
    02:00 +26°C° 1.1 mm 1 mps 756 mmHg 96%
    03:00 +25°C° 1.1 mm 1 mps 756 mmHg 97%
    04:00 +25°C° 1.1 mm 1 mps 756 mmHg 98%
    05:00 +26°C° 0.8 mm 1 mps 757 mmHg 96%
    06:00 +27°C° 0.8 mm 1 mps 757 mmHg 94%
    07:00 +28°C° 0.8 mm 1 mps 758 mmHg 91%
    08:00 +30°C° 0.5 mm 1 mps 758 mmHg 79%
    09:00 +32°C° 0.5 mm 1 mps 758 mmHg 67%
    10:00 +35°C° 0.5 mm 1 mps 758 mmHg 55%
    11:00 +35°C° 0.2 mm 1 mps 758 mmHg 56%
    12:00 +35°C° 0.2 mm 2 mps 757 mmHg 57%
    13:00 +35°C° 0.2 mm 2 mps 756 mmHg 58%
    14:00 +34°C° 0.3 mm 2 mps 756 mmHg 62%
    15:00 +34°C° 0.3 mm 2 mps 755 mmHg 66%
    16:00 +32°C° 0.3 mm 2 mps 755 mmHg 70%
    17:00 +31°C° 0.1 mm 2 mps 756 mmHg 74%
    18:00 +29°C° 0.1 mm 2 mps 756 mmHg 79%
    19:00 +28°C° 0.1 mm 1 mps 757 mmHg 84%
    20:00 +27°C° 0 mm 1 mps 757 mmHg 86%
    21:00 +27°C° 0 mm 1 mps 758 mmHg 87%
    22:00 +27°C° 0 mm 1 mps 758 mmHg 88%
    23:00 +26°C° 0 mm 1 mps 757 mmHg 89%

    24 September, Monday

    Time Temperature Precipitation Wind Pressure Humidity
    00:00 +26°C° 0 mm 1 mps 757 mmHg 91%
    01:00 +24°C° 0 mm 0 mps 756 mmHg 92%
    02:00 +26°C° 0.3 mm 1 mps 756 mmHg 94%
    03:00 +25°C° 0.3 mm 1 mps 756 mmHg 95%
    04:00 +25°C° 0.3 mm 1 mps 756 mmHg 97%
    05:00 +24°C° 0.6 mm 0 mps 757 mmHg 93%
    06:00 +25°C° 0.6 mm 0 mps 757 mmHg 90%
    07:00 +26°C° 0.6 mm 0 mps 758 mmHg 86%
    08:00 +30°C° 0.1 mm 1 mps 758 mmHg 76%
    09:00 +33°C° 0.1 mm 1 mps 758 mmHg 65%
    10:00 +35°C° 0.1 mm 1 mps 758 mmHg 54%
    11:00 +35°C° 0.4 mm 2 mps 757 mmHg 58%
    12:00 +35°C° 0.4 mm 2 mps 756 mmHg 62%
    13:00 +34°C° 0.4 mm 2 mps 755 mmHg 66%
    14:00 +32°C° 0.5 mm 2 mps 755 mmHg 69%
    15:00 +32°C° 0.5 mm 2 mps 755 mmHg 72%
    16:00 +31°C° 0.5 mm 2 mps 754 mmHg 75%
    17:00 +30°C° 0 mm 2 mps 755 mmHg 79%
    18:00 +29°C° 0 mm 1 mps 756 mmHg 83%
    19:00 +28°C° 0 mm 1 mps 756 mmHg 87%
    20:00 +27°C° 0 mm 1 mps 756 mmHg 87%
    21:00 +27°C° 0 mm 1 mps 756 mmHg 88%
    22:00 +27°C° 0 mm 1 mps 757 mmHg 89%
    23:00 +27°C° 0.1 mm 1 mps 756 mmHg 90%

    25 September, Tuesday

    Time Temperature Precipitation Wind Pressure Humidity
    00:00 +27°C° 0.1 mm 1 mps 756 mmHg 91%
    01:00 +26°C° 0.1 mm 1 mps 755 mmHg 92%
    02:00 +26°C° 1.3 mm 1 mps 755 mmHg 94%
    03:00 +26°C° 1.3 mm 1 mps 755 mmHg 95%
    04:00 +26°C° 1.3 mm 1 mps 755 mmHg 96%
    05:00 +26°C° 0.9 mm 1 mps 756 mmHg 95%
    06:00 +27°C° 0.9 mm 1 mps 756 mmHg 94%
    07:00 +26°C° 0.9 mm 0 mps 757 mmHg 92%
    08:00 +28°C° 0.7 mm 0 mps 757 mmHg 83%
    09:00 +30°C° 0.7 mm 0 mps 757 mmHg 74%
    10:00 +32°C° 0.7 mm 0 mps 757 mmHg 65%
    11:00 +34°C° 0.3 mm 1 mps 756 mmHg 62%
    12:00 +35°C° 0.3 mm 2 mps 755 mmHg 59%
    13:00 +36°C° 0.3 mm 2 mps 755 mmHg 56%
    14:00 +35°C° 0.2 mm 2 mps 754 mmHg 61%
    15:00 +34°C° 0.2 mm 2 mps 754 mmHg 65%
    16:00 +32°C° 0.2 mm 2 mps 754 mmHg 70%
    17:00 +30°C° 0 mm 2 mps 755 mmHg 75%
    18:00 +29°C° 0 mm 2 mps 755 mmHg 80%
    19:00 +28°C° 0 mm 2 mps 756 mmHg 85%
    20:00 +27°C° 0 mm 1 mps 756 mmHg 86%
    21:00 +27°C° 0 mm 1 mps 756 mmHg 87%
    22:00 +27°C° 0 mm 1 mps 756 mmHg 88%
    23:00 +27°C° 0.3 mm 1 mps 756 mmHg 89%

    26 September, Wednesday

    Time Temperature Precipitation Wind Pressure Humidity
    00:00 +26°C° 0.3 mm 1 mps 755 mmHg 89%
    01:00 +26°C° 0.3 mm 2 mps 755 mmHg 90%
    02:00 +26°C° 0.7 mm 1 mps 755 mmHg 92%
    03:00 +26°C° 0.7 mm 1 mps 755 mmHg 94%
    04:00 +25°C° 0.7 mm 1 mps 755 mmHg 97%
    05:00 +26°C° 0.6 mm 1 mps 755 mmHg 96%
    06:00 +26°C° 0.6 mm 1 mps 756 mmHg 96%
    07:00 +27°C° 0.6 mm 1 mps 756 mmHg 95%
    08:00 +29°C° 0.2 mm 1 mps 756 mmHg 85%
    09:00 +31°C° 0.2 mm 1 mps 756 mmHg 76%
    10:00 +33°C° 0.2 mm 1 mps 756 mmHg 66%
    11:00 +34°C° 0.1 mm 1 mps 756 mmHg 59%
    12:00 +36°C° 0.1 mm 1 mps 755 mmHg 52%
    13:00 +39°C° 0.1 mm 1 mps 754 mmHg 45%
    14:00 +37°C° 0 mm 2 mps 754 mmHg 50%
    15:00 +36°C° 0 mm 2 mps 754 mmHg 55%
    16:00 +34°C° 0 mm 3 mps 754 mmHg 60%
    17:00 +33°C° 0 mm 3 mps 754 mmHg 68%
    18:00 +30°C° 0 mm 3 mps 755 mmHg 76%
    19:00 +28°C° 0 mm 3 mps 755 mmHg 84%
    20:00 +28°C° 0.4 mm 2 mps 755 mmHg 87%
    21:00 +27°C° 0.4 mm 2 mps 756 mmHg 90%
    22:00 +27°C° 0.4 mm 2 mps 756 mmHg 94%
    23:00 +26°C° 0.4 mm 2 mps 755 mmHg 94%
    Show more